Tracking 30258 objects as of 19-Feb-2025
HD Live streaming from Space Station
objects crossing your sky now

YAOGAN-36 04A

Track YAOGAN-36 04A now!
10-day predictions


NORAD ID: 54746
Int'l Code: 2022-171A
Perigee: 500.3 km
Apogee: 507.0 km
Inclination: 35.0 °
Period: 94.5 minutes
Semi major axis: 6874 km
RCS: Unknown
Launch date: December 14, 2022
Source: People's Republic of China (PRC)
Launch site: Xichang Space Center, China (XSC)
Your satellite tracking list
Your tracking list is empty




NASA's NSSDC Master Catalog

Two Line Element Set (TLE):
1 54746U 22171A   25050.30702971  .00026900  00000-0  11105-2 0  9997
2 54746  34.9943 355.2467 0004825 306.5720  53.4550 15.23100602121707
Source of the keplerian elements: AFSPC